sat.trackr.live / text

‹ back to catalog

STARLINK-11584 [DTC]

NORAD 63106 · 2025-039C

PAYLOAD ACTIVE UNKNOWN

§ Identity

Operator
Country
US
Launch date
2025-02-27
Launch site
AFETR
Launch vehicle
Mass (kg)
RCS (m²)

Purposes: comms

External: N2YO · Heavens-Above · Gunter

§ Orbital elements

Epoch: 2026-09-20T01:52:00.490080Z

Period
91.67 min
Inclination
42.9996°
Eccentricity
0.0001671
Mean motion
15.70871481 rev/d
Perigee alt
355.3 km
Apogee alt
357.5 km
Semi-major
6,734.5 km
B*
1.0223e-3
RAAN
145.5005°
Arg perigee
262.0935°
Mean anomaly
97.9743°
Rev number
9,018

§ Raw data

STARLINK-11584 [DTC]1 63106U 25039C   26263.07778345  .00133019  00000+0  10223-2 0  99912 63106  42.9996 145.5005 0001671 262.0935  97.9743 15.70871481 90188

JSON: /api/v1/satellites/63106 · /tle

For live sub-satellite position, see the globe view (requires WebGL).

§ Visibility from observer

Set your observer location to see the next 7 days of passes ≥ 10°. The values pass through the URL so the page stays shareable.

No JS? Fill the form by hand. The geolocation button needs JavaScript.